Flag for Germany Weather past 2 weeks in Regensburg, Bavaria, Germany

Now
70 °F

Sunny.


Feels Like: 70 °F
Forecast: 47 / 72 °F
Wind: 3 mph from Northeast

Location: Regensburg


UV Index: 3 (Moderate)

Visibility: 28 mi


Pressure: 29.94 "Hg

Humidity: 39%

Dew point: 44 °F

Location of RegensburgLocation

Historic Weather in Regensburg

°F

Regensburg temperature yesterday

Maximum temperature yesterday: 73 °F (at 3:00 PM)
Minimum temperature yesterday: 42 °F (at 7:00 AM)
Average temperature yesterday: 57 °F

Past Weeks' High & Low Weather Summary

 TemperatureHumidityPressure
High73 °F (Apr 23, 3:00 PM)99% (Apr 23, 8:00 AM)30.43 "Hg (Apr 23, 8:00 AM)
Low28 °F (Apr 17, 7:00 AM)27% (Apr 17, 5:00 PM)29.62 "Hg (Apr 21, 4:00 PM)
Average50 °F72%30.02 "Hg
* Reported Apr 9 6:00 PM — Apr 24 6:00 PM, Regensburg, Weather by CustomWeather, © 2014

Note: Actual official high and low records may vary slightly from our data, if they occured in-between our weather recording intervals... More about our weather records

Advertising

Historic Weather Conditions — Data for Previous 24 hours

 ConditionsComfort  
Time TempWeatherWind HumidityBarometerVisibility
6:00 PM
Apr 24
72 °FSunny.3 mph37%29.94 "Hg28 mi
5:00 PM73 °FSunny.2 mph37%29.95 "Hg25 mi
4:00 PM71 °FPassing clouds.3 mph33%29.97 "Hg22 mi
3:00 PM72 °FScattered clouds.2 mph42%29.99 "Hg19 mi
2:00 PM73 °FScattered clouds.3 mph38%30.01 "Hg18 mi
1:00 PM72 °FPassing clouds.3 mph42%30.03 "Hg16 mi
12:00 PM67 °FPassing clouds.3 mph47%30.06 "Hg19 mi
11:00 AM67 °FSunny.2 mph56%30.07 "Hg13 mi
10:00 AM62 °FSunny.2 mph69%30.09 "Hg12 mi
9:00 AM54 °FSunny.2 mph80%30.11 "Hg9 mi
8:00 AM47 °FSunny.2 mph90%30.13 "Hg7 mi
7:00 AM46 °FSunny.2 mph92%30.12 "Hg7 mi
6:00 AM46 °FClear.2 mph90%30.10 "Hg7 mi
5:00 AM47 °FClear.2 mph87%30.10 "Hg9 mi
4:00 AM48 °FClear.3 mph85%30.10 "Hg12 mi
3:00 AM50 °FClear.2 mph83%30.10 "Hg14 mi
2:00 AM51 °FPassing clouds.1 mph78%30.10 "Hg18 mi
1:00 AM52 °FClear.1 mph75%30.10 "Hg22 mi
12:00 AM50 °FPassing clouds.2 mph79%30.10 "Hg22 mi
11:00 PM
Apr 23
53 °FClear.2 mph75%30.09 "Hg25 mi
10:00 PM55 °FClear.2 mph66%30.08 "Hg28 mi
9:00 PM60 °FClear.1 mph55%30.05 "Hg34 mi
8:00 PM65 °FSunny.2 mph41%30.01 "Hg43 mi
7:00 PM71 °FSunny.3 mph31%30.00 "Hg37 mi
Weather by CustomWeather, © 2014

See weather overview